This is the latest recevied weather packets stored in our database for station/object AE5TC. If no packets are shown the sender has not sent any weather packets the latest 10 day(s).
| Time | Temp. | Humidity | Pressure | Rain* | Wind** | Luminosity | Snow |
|---|---|---|---|---|---|---|---|
| 1777391156 | 23.33° C | 88% | 1020.4 hPa | 0 mm | - | 230 W/m² | - |
| 1777390852 | 23.33° C | 88% | 1020.3 hPa | 0 mm | - | 230 W/m² | - |
| 1777390549 | 23.33° C | 89% | 1020.5 hPa | 0 mm | - | 207 W/m² | - |
| 1777390245 | 23.33° C | 88% | 1020.4 hPa | 0 mm | - | 165 W/m² | - |
| 1777389941 | 23.33° C | 88% | 1020.4 hPa | 0 mm | - | 199 W/m² | - |
| 1777389335 | 23.33° C | 89% | 1020.2 hPa | 0 mm | - | 184 W/m² | - |
| 1777389032 | 23.33° C | 89% | 1020.4 hPa | 0 mm | - | 214 W/m² | - |
| 1777388730 | 23.33° C | 89% | 1020.5 hPa | 0 mm | - | 197 W/m² | - |
| 1777388126 | 23.33° C | 88% | 1020.5 hPa | 0 mm | - | 185 W/m² | - |
| 1777387519 | 23.33° C | 89% | 1020.2 hPa | 0 mm | - | 223 W/m² | - |
| 1777386910 | 23.89° C | 88% | 1020 hPa | 0 mm | - | 207 W/m² | - |
| 1777386608 | 23.89° C | 88% | 1020.4 hPa | 0 mm | - | 246 W/m² | - |
| 1777385698 | 22.78° C | 89% | 1019.8 hPa | 0 mm | - | 245 W/m² | - |
| 1777385395 | 22.78° C | 90% | 1020 hPa | 0 mm | - | 188 W/m² | - |
| 1777384179 | 22.78° C | 91% | 1019.7 hPa | 0 mm | - | 227 W/m² | - |
| 1777383572 | 22.78° C | 91% | 1019.6 hPa | 0 mm | - | 147 W/m² | - |
| 1777383268 | 22.78° C | 91% | 1019.6 hPa | 0 mm | - | 188 W/m² | - |
| 1777382965 | 22.78° C | 92% | 1019.4 hPa | 0 mm | - | 199 W/m² | - |
| 1777382356 | 22.22° C | 92% | 1019.1 hPa | 0 mm | - | 178 W/m² | - |
| 1777381749 | 22.22° C | 93% | 1019.2 hPa | 0 mm | - | 126 W/m² | - |
| 1777378105 | 21.11° C | 97% | 1018.5 hPa | 0 mm | - | 62 W/m² | - |
| 1777375676 | 20° C | 99% | 1018.2 hPa | 0 mm | - | 19 W/m² | - |
| 1777375375 | 20° C | 99% | 1018.3 hPa | 0 mm | - | 18 W/m² | - |
| 1777375074 | 20.56° C | 99% | 1018.3 hPa | 0 mm | - | 14 W/m² | - |
| 1777374773 | 20.56° C | 99% | 1018.1 hPa | 0 mm | - | 10 W/m² | - |
* Rain latest hour (hover to see other rain measurements)
** Current wind speed in m/s (hover to see current wind gust speed)